Location: Home
(42.5358°N, 72.7383°W)
Time: 00:14:32
(UTC-05:00)

Vanguard 3 - Pass Details

Date: 07 December 2021
Orbit: 508 x 3260 km, 33.3° (Epoch: 21 January)

Event Time Altitude Azimuth Distance (km) Brightness Sun altitude
Rises 08:30:39 0° 280° (W) 7,065 11.4 11.2°
Reaches altitude 10° 08:36:32 10° 272° (W) 5,783 11.1 12.0°
Maximum altitude 08:49:44 30° 220° (SW) 3,438 10.6 13.6°
Drops below altitude 10° 08:58:43 10° 164° (SSE) 3,864 12.1 14.6°
Sets 09:01:47 0° 153° (SSE) 4,486 12.7 15.0°
